POLAR

Last updated on June 17, 2021, 2:14 a.m. UTC

1 23802U 96013A   21167.20554050  .00000230  00000-0  00000+0 0  9996
2 23802  78.7114 245.4534 6012276 271.2362  25.0210  1.29847034121113
UTC
Height (km)
Latitude
Longitude
Inclination
Orbital Period
UTC large
Height (km)
Speed (km/s)
/
Latitude / Longitude
Inclination (degrees)
Orbital Period (minutes)
Azimuth
Elevation
Range (km)
Doppler Factor
iOS Compass Heading
iOS Angle

Next 30 passes for location: Hong Kong

Rise time Rise Azimuth (degrees) Set time Set Azimuth (degrees) Duration Max altitude (degrees)

No matching passes for this satellites